[[{"header":{"parameterUnit":"m.s-1","parameterCategory":1,"la1":30.2991,"la2":30.254,"lo1":-89.0895,"lo2":-89.0444,"dy":0.0017,"dx":0.0017,"nx":28,"ny":28,"refTime":"2025-12-20T03:00:00:Z","depth":0,"parameterNumber":2,"parameterNumberName":"U-component_of_WINDS"},"data":[0,0,0,0,0,0,0,0,0,0,0,0,0,0,0,0,0,0,0,0,0,0,0,0,0,0,0,0,0,0,0,0,0,0,0,0,0,0,0,0,0,0,0,0,0,0,0,0,0,0,0,0,0,0,0,0,0,0,-0.4616,-0.4616,0,-0.4664,-0.4664,-0.4665,-0.4652,-0.4651,-0.465,-0.4649,-0.4701,-0.4704,-0.4706,0,0,0,0,0,0,0,0,0,0,0,0,0,-0.4515,-0.4517,-0.4616,-0.4616,-0.4617,-0.4664,-0.4664,-0.4665,-0.4652,-0.4651,-0.465,-0.4649,-0.4701,-0.4703,-0.4706,0,0,0,0,0,0,0,0,0,0,0,0,0,-0.456,-0.4517,-0.4615,-0.4616,-0.4616,-0.4664,-0.4664,-0.4665,-0.4652,-0.4651,-0.4649,-0.4648,-0.47,-0.4703,-0.4706,-0.4757,0,0,-0.4717,-0.4718,0,0,0,0,0,0,0,0,-0.4558,-0.4564,-0.4615,-0.4616,-0.4617,-0.465,-0.4648,-0.4696,-0.4653,-0.4639,-0.4649,-0.4647,-0.4686,-0.469,-0.4703,-0.4759,-0.4761,-0.4717,-0.4719,-0.4721,-0.4722,0,0,0,0,0,0,0,-0.4555,-0.4562,-0.4635,-0.4616,-0.4617,-0.4615,-0.4619,-0.4657,-0.467,-0.464,-0.4639,-0.4645,-0.4686,-0.4699,-0.4704,-0.4762,-0.4717,-0.472,-0.4722,-0.4724,-0.4863,-0.4865,0,0,0,0,0,0,-0.4551,-0.4559,-0.4633,-0.4636,-0.4583,-0.4618,-0.4623,-0.4641,-0.4669,-0.4672,-0.4646,-0.4644,-0.4694,-0.47,-0.4705,-0.4767,-0.4721,-0.4724,-0.4726,-0.4862,-0.4864,-0.4865,0,0,0,0,0,0,-0.4549,-0.4557,-0.4631,-0.4598,-0.4607,-0.4621,-0.4641,-0.4643,-0.4656,-0.4674,-0.4677,-0.4657,-0.4693,-0.4701,-0.4744,-0.4769,-0.4726,-0.4729,-0.486,-0.4862,-0.4864,-0.489,0,0,0,0,0,0,-0.4546,-0.4557,-0.4575,-0.4598,-0.4609,-0.4668,-0.4643,-0.4645,-0.4662,-0.466,-0.4685,-0.4688,-0.4693,-0.4739,-0.4747,-0.4772,-0.4731,-0.4858,-0.4861,-0.4864,-0.4887,-0.4893,-0.4898,0,0,0,0,0,-0.4542,-0.4581,-0.4576,-0.4585,-0.4632,-0.467,-0.4676,-0.468,-0.4664,-0.4683,-0.4695,-0.4687,-0.4764,-0.4743,-0.4753,-0.4779,-0.4856,-0.486,-0.4863,-0.4884,-0.4892,-0.4898,0,0,0,0,0,0,-0.4562,-0.4584,-0.4579,-0.4627,-0.4646,-0.4668,-0.4692,-0.4687,-0.4712,-0.471,-0.4714,-0.4719,-0.4764,-0.4776,-0.4752,-0.483,-0.4808,-0.4814,-0.4821,-0.4828,-0.4833,-0.483,-0.4734,0,0,0,0,0,-0.4572,-0.46,-0.4618,-0.4658,-0.4668,-0.4678,-0.4695,-0.4696,-0.4717,-0.4725,-0.474,-0.4761,-0.479,-0.4809,-0.4837,-0.4888,-0.4894,-0.4911,-0.4916,-0.4921,-0.4926,-0.4955,-0.4963,-0.4877,-0.4877,-0.4877,0,0,-0.4593,-0.4608,-0.4626,-0.4662,-0.4678,-0.4707,-0.4686,-0.4718,-0.474,-0.473,-0.4772,-0.4784,-0.4808,-0.4855,-0.4877,-0.4867,-0.4951,-0.4926,-0.4929,-0.4932,-0.4959,-0.4968,-0.4975,-0.488,-0.4879,-0.4879,0,0,-0.4646,-0.466,-0.4696,-0.4711,-0.4734,-0.4741,-0.4749,-0.4771,-0.4778,-0.482,-0.4813,-0.484,-0.489,-0.4907,-0.4923,-0.4982,-0.4977,-0.4991,-0.502,-0.5048,-0.5055,-0.5061,-0.5083,-0.5091,-0.4996,-0.4996,-0.4996,0,-0.467,-0.4713,-0.4715,-0.4747,-0.4764,-0.4755,-0.4791,-0.4807,-0.4838,-0.485,-0.4838,-0.49,-0.4915,-0.4967,-0.4981,-0.4994,-0.5004,-0.4989,-0.5054,-0.506,-0.5065,-0.5087,-0.5095,-0.4998,-0.4997,-0.4997,-0.4997,0,-0.4741,-0.4772,-0.4797,-0.4827,-0.4846,-0.4881,-0.4888,-0.4907,-0.4906,-0.4914,-0.4957,-0.4975,-0.5007,-0.5019,-0.5018,-0.5071,-0.5064,-0.5052,-0.5031,-0.5075,-0.5095,-0.5103,-0.5,-0.4999,-0.4999,-0.4999,0,0,-0.481,-0.4839,-0.4849,-0.4862,-0.4887,-0.4911,-0.4945,-0.4974,-0.4991,-0.5013,-0.5042,-0.5084,-0.5074,-0.5091,-0.5093,-0.5117,-0.5164,-0.5103,-0.5103,-0.5114,-0.5224,-0.5233,-0.5242,-0.5159,-0.5161,-0.5162,-0.5222,0,-0.4867,-0.4926,-0.4928,-0.4982,-0.5011,-0.5002,-0.5032,-0.5051,-0.5059,-0.5085,-0.5094,-0.5124,-0.5107,-0.5118,-0.5141,-0.5153,-0.5186,-0.5148,-0.5188,-0.519,-0.5184,-0.5252,-0.5263,-0.5318,-0.523,-0.5231,-0.5232,0,-0.4941,-0.4964,-0.5021,-0.5041,-0.5053,-0.508,-0.5107,-0.5132,-0.5153,-0.5157,-0.5176,-0.5174,-0.521,-0.5186,-0.5235,-0.521,-0.5226,-0.5234,-0.5236,-0.5241,-0.5214,-0.5261,-0.5336,-0.5345,-0.5244,-0.5243,-0.5242,0,-0.4987,-0.5032,-0.5072,-0.5084,-0.5108,-0.5127,-0.5138,-0.5158,-0.5176,-0.52,-0.5211,-0.5239,-0.5255,-0.5277,-0.5283,-0.5265,-0.5333,-0.5309,-0.5339,-0.5339,-0.5355,-0.5354,-0.5435,-0.5363,-0.5363,-0.5363,-0.5363,0,-0.5051,-0.5086,-0.5093,-0.5118,-0.5158,-0.5159,-0.5199,-0.5209,-0.5226,-0.5253,-0.5248,-0.5274,-0.5279,-0.5306,-0.5311,-0.5352,-0.5359,-0.5364,-0.5365,-0.5365,-0.5365,-0.5377,-0.5374,-0.5365,-0.5364,-0.5364,-0.5364,0,-0.5109,-0.5115,-0.5159,-0.5178,-0.5183,-0.5212,-0.5229,-0.5253,-0.526,-0.5294,-0.5303,-0.5314,-0.5346,-0.5353,-0.5391,-0.5394,-0.5443,-0.544,-0.5436,-0.5436,-0.5466,-0.5463,-0.5558,-0.5571,-0.549,-0.549,-0.5491,0,-0.515,-0.5177,-0.5199,-0.5216,-0.5228,-0.5256,-0.5274,-0.5276,-0.5295,-0.5321,-0.5343,-0.5373,-0.5398,-0.5449,-0.5462,-0.5491,-0.5489,-0.552,-0.5493,-0.5493,-0.5491,-0.549,-0.5493,-0.5526,-0.5527,-0.5527,-0.5528,0,-0.5223,-0.5224,-0.5249,-0.5276,-0.5297,-0.5318,-0.5338,-0.5353,-0.5358,-0.538,-0.5411,-0.5431,-0.5469,-0.55,-0.5529,-0.5541,-0.5536,-0.5536,-0.5545,-0.5546,-0.5543,-0.5546,-0.5451,-0.5534,-0.5534,-0.5533,-0.5533,-0.5532,-0.5275,-0.5299,-0.5317,-0.5346,-0.5361,-0.538,-0.5403,-0.5413,-0.5439,-0.547,-0.547,-0.5505,-0.5525,-0.5563,-0.5577,-0.5605,-0.5596,-0.5608,-0.5611,-0.5615,-0.5618,-0.5537,-0.561,-0.561,-0.561,-0.561,-0.561,0,-0.5348,-0.5359,-0.5385,-0.5413,-0.5436,-0.5427,-0.5449,-0.5469,-0.5499,-0.5518,-0.5542,-0.5579,-0.5609,-0.5623,-0.5653,-0.5672,-0.5671,-0.568,-0.568,-0.5683,-0.5624,-0.5614,-0.5681,-0.5681,-0.5681,-0.5681,-0.5681,-0.5681,-0.5389,-0.5429,-0.5432,-0.548,-0.5491,-0.5525,-0.5538,-0.5556,-0.5571,-0.5612,-0.5636,-0.5644,-0.5662,-0.5693,-0.572,-0.5723,-0.5735,-0.5746,-0.5749,-0.5694,-0.5687,-0.568,-0.5671,-0.5748,-0.5749,-0.5805,-0.5806,-0.5806]},{"header":{"parameterUnit":"m.s-1","parameterCategory":1,"la1":30.2991,"la2":30.254,"lo1":-89.0895,"lo2":-89.0444,"dy":0.0017,"dx":0.0017,"nx":28,"ny":28,"refTime":"2025-12-20T03:00:00:Z","depth":0,"parameterNumber":3,"parameterNumberName":"V-component_of_WINDS"},"data":[0,0,0,0,0,0,0,0,0,0,0,0,0,0,0,0,0,0,0,0,0,0,0,0,0,0,0,0,0,0,0,0,0,0,0,0,0,0,0,0,0,0,0,0,0,0,0,0,0,0,0,0,0,0,0,0,0,0,-2.5991,-2.5992,0,-2.6097,-2.6099,-2.61,-2.6097,-2.6096,-2.6094,-2.6093,-2.6197,-2.6201,-2.6205,0,0,0,0,0,0,0,0,0,0,0,0,0,-2.5782,-2.5786,-2.5991,-2.5992,-2.5994,-2.6097,-2.6099,-2.61,-2.6097,-2.6096,-2.6094,-2.6092,-2.6196,-2.6201,-2.6206,0,0,0,0,0,0,0,0,0,0,0,0,0,-2.5879,-2.5787,-2.5991,-2.6005,-2.6007,-2.6097,-2.6099,-2.61,-2.6098,-2.6096,-2.6093,-2.6091,-2.6194,-2.62,-2.6207,-2.6288,0,0,-2.6225,-2.6228,0,0,0,0,0,0,0,0,-2.5874,-2.5887,-2.6002,-2.6004,-2.6007,-2.6082,-2.6063,-2.6163,-2.6098,-2.6063,-2.6093,-2.609,-2.616,-2.6169,-2.6194,-2.6292,-2.6297,-2.6226,-2.623,-2.6232,-2.6234,0,0,0,0,0,0,0,-2.5867,-2.5882,-2.6033,-2.6003,-2.6007,-2.6005,-2.6016,-2.6082,-2.6122,-2.6066,-2.6066,-2.6079,-2.6161,-2.6188,-2.6196,-2.6299,-2.6226,-2.6231,-2.6235,-2.6237,-2.647,-2.6472,0,0,0,0,0,0,-2.5858,-2.5877,-2.603,-2.6036,-2.5934,-2.601,-2.6023,-2.606,-2.6122,-2.6129,-2.6081,-2.6079,-2.6178,-2.6189,-2.62,-2.6299,-2.6232,-2.6238,-2.6242,-2.6467,-2.647,-2.6473,0,0,0,0,0,0,-2.5853,-2.5871,-2.6025,-2.5957,-2.5976,-2.6016,-2.6058,-2.6063,-2.609,-2.6133,-2.614,-2.6101,-2.6177,-2.6191,-2.6266,-2.6303,-2.6241,-2.6246,-2.6464,-2.6468,-2.6472,-2.6499,0,0,0,0,0,0,-2.5847,-2.587,-2.5902,-2.5957,-2.598,-2.6091,-2.606,-2.6067,-2.6101,-2.6099,-2.6153,-2.616,-2.6176,-2.6257,-2.6272,-2.631,-2.6251,-2.6461,-2.6466,-2.647,-2.6495,-2.6503,-2.651,0,0,0,0,0,-2.584,-2.5904,-2.5904,-2.5922,-2.6021,-2.6093,-2.6106,-2.6125,-2.6104,-2.6136,-2.6164,-2.6158,-2.6297,-2.6265,-2.6282,-2.6322,-2.6459,-2.6465,-2.647,-2.6491,-2.6501,-2.651,0,0,0,0,0,0,-2.585,-2.5912,-2.5912,-2.5996,-2.604,-2.6093,-2.6134,-2.6134,-2.6184,-2.618,-2.6199,-2.6212,-2.6287,-2.6312,-2.6276,-2.6404,-2.6375,-2.6384,-2.6385,-2.6395,-2.6402,-2.6395,-2.6256,0,0,0,0,0,-2.5863,-2.5918,-2.5968,-2.6037,-2.6059,-2.6093,-2.6125,-2.6136,-2.6181,-2.6199,-2.6233,-2.6276,-2.6329,-2.6363,-2.6414,-2.6498,-2.651,-2.6535,-2.6542,-2.6548,-2.6556,-2.6602,-2.6614,-2.6491,-2.6491,-2.6491,0,0,-2.5888,-2.5928,-2.5962,-2.604,-2.6075,-2.6131,-2.6108,-2.6168,-2.6209,-2.6208,-2.6281,-2.6307,-2.6357,-2.6437,-2.6474,-2.646,-2.6593,-2.6555,-2.656,-2.6564,-2.6609,-2.6621,-2.6631,-2.6495,-2.6494,-2.6494,0,0,-2.5963,-2.5999,-2.6062,-2.6098,-2.6152,-2.6174,-2.6189,-2.6242,-2.626,-2.6335,-2.6335,-2.6384,-2.6475,-2.651,-2.654,-2.663,-2.6627,-2.6646,-2.6685,-2.6731,-2.674,-2.6749,-2.6781,-2.6793,-2.6654,-2.6654,-2.6654,0,-2.5987,-2.6073,-2.6093,-2.6154,-2.6188,-2.6192,-2.6254,-2.6288,-2.6355,-2.6379,-2.6363,-2.6478,-2.6511,-2.66,-2.6622,-2.6646,-2.6664,-2.664,-2.6738,-2.6747,-2.6755,-2.6786,-2.6798,-2.6656,-2.6655,-2.6655,-2.6655,0,-2.61,-2.6159,-2.6203,-2.627,-2.6309,-2.637,-2.6399,-2.6437,-2.6444,-2.6468,-2.6543,-2.6584,-2.6644,-2.6666,-2.6673,-2.6756,-2.6746,-2.6734,-2.6704,-2.6768,-2.6798,-2.681,-2.6658,-2.6658,-2.6657,-2.6657,0,0,-2.6184,-2.6263,-2.6278,-2.6309,-2.637,-2.6415,-2.6476,-2.6537,-2.6568,-2.6615,-2.6666,-2.6744,-2.6734,-2.6768,-2.6779,-2.6819,-2.6888,-2.6802,-2.6803,-2.6816,-2.6982,-2.6991,-2.7004,-2.6886,-2.6889,-2.689,-2.6978,0,-2.6265,-2.6376,-2.6397,-2.6492,-2.6547,-2.6552,-2.6605,-2.6647,-2.6671,-2.672,-2.6745,-2.6801,-2.6783,-2.6803,-2.6843,-2.6871,-2.6921,-2.6865,-2.6934,-2.6936,-2.6921,-2.7019,-2.7029,-2.7109,-2.6989,-2.6991,-2.6993,0,-2.6375,-2.6426,-2.6528,-2.6583,-2.6606,-2.6654,-2.6711,-2.6758,-2.6806,-2.6821,-2.686,-2.6867,-2.693,-2.6898,-2.6985,-2.6946,-2.6976,-2.6994,-2.6997,-2.7004,-2.6968,-2.7029,-2.7135,-2.7147,-2.7011,-2.7009,-2.7008,0,-2.6426,-2.652,-2.6594,-2.662,-2.6685,-2.6719,-2.6747,-2.6793,-2.6828,-2.6878,-2.6901,-2.6957,-2.6987,-2.703,-2.7051,-2.7026,-2.7137,-2.7107,-2.715,-2.7149,-2.7173,-2.7171,-2.7285,-2.7191,-2.7191,-2.7191,-2.7191,0,-2.6515,-2.6577,-2.6618,-2.6663,-2.6733,-2.6756,-2.6824,-2.6851,-2.6893,-2.6942,-2.6949,-2.6995,-2.7021,-2.7071,-2.7088,-2.7158,-2.7171,-2.7184,-2.7188,-2.7184,-2.7182,-2.7203,-2.7198,-2.7194,-2.7194,-2.7193,-2.7192,0,-2.6584,-2.6614,-2.6694,-2.675,-2.6765,-2.6814,-2.6861,-2.6905,-2.6929,-2.6992,-2.7008,-2.7045,-2.7105,-2.7131,-2.7203,-2.7215,-2.7294,-2.7294,-2.7278,-2.728,-2.7322,-2.7317,-2.7453,-2.7472,-2.7366,-2.7367,-2.7368,0,-2.6638,-2.6687,-2.6748,-2.6783,-2.6813,-2.6868,-2.6905,-2.6929,-2.6967,-2.7026,-2.7062,-2.7122,-2.7172,-2.7266,-2.7299,-2.7354,-2.7355,-2.7399,-2.7363,-2.7358,-2.7356,-2.7353,-2.7358,-2.7405,-2.7406,-2.7407,-2.7408,0,-2.6732,-2.6745,-2.6799,-2.6858,-2.6902,-2.6949,-2.6995,-2.7023,-2.7054,-2.7096,-2.7157,-2.7196,-2.7271,-2.733,-2.7388,-2.7416,-2.7417,-2.7419,-2.7432,-2.7428,-2.7418,-2.7424,-2.7296,-2.7416,-2.7415,-2.7414,-2.7414,-2.7414,-2.6796,-2.684,-2.689,-2.695,-2.6987,-2.703,-2.7075,-2.7105,-2.7158,-2.7222,-2.7232,-2.7298,-2.7345,-2.7424,-2.7454,-2.7505,-2.7494,-2.7513,-2.7517,-2.7522,-2.7525,-2.741,-2.7515,-2.7515,-2.7515,-2.7515,-2.7515,0,-2.6891,-2.6924,-2.6979,-2.7044,-2.7091,-2.709,-2.7141,-2.7179,-2.7238,-2.7283,-2.7332,-2.7403,-2.746,-2.7498,-2.7557,-2.759,-2.7592,-2.7605,-2.7602,-2.7609,-2.7531,-2.7514,-2.7602,-2.7602,-2.7602,-2.7602,-2.7602,-2.7602,-2.6946,-2.702,-2.7039,-2.7131,-2.7164,-2.723,-2.7259,-2.7299,-2.7335,-2.7414,-2.7463,-2.7488,-2.753,-2.7592,-2.7644,-2.7654,-2.7675,-2.7688,-2.7697,-2.7623,-2.7614,-2.7606,-2.759,-2.7693,-2.7693,-2.7771,-2.7772,-2.7772]}]]